����������;��������(kWh)
2017-12-04 00:00;93,7
2017-12-04 00:15;95,7
2017-12-04 00:30;93
2017-12-04 00:45;95
2017-12-04 01:00;92,1
2017-12-04 01:15;97,65
2017-12-04 01:30;92,15
2017-12-04 01:45;95,75
2017-12-04 02:00;92,45
2017-12-04 02:15;94
2017-12-04 02:30;92,9
2017-12-04 02:45;92,9
2017-12-04 03:00;92,2
2017-12-04 03:15;91,3
2017-12-04 03:30;91,7
2017-12-04 03:45;90,7
2017-12-04 04:00;91,7
2017-12-04 04:15;90
2017-12-04 04:30;91,2
2017-12-04 04:45;89,95
2017-12-04 05:00;89,3
2017-12-04 05:15;92,85
2017-12-04 05:30;90,5
2017-12-04 05:45;91,65
2017-12-04 06:00;88,95
2017-12-04 06:15;90,8
2017-12-04 06:30;92,8
2017-12-04 06:45;96
2017-12-04 07:00;93,2
2017-12-04 07:15;93,95
2017-12-04 07:30;95,55
2017-12-04 07:45;97,45
2017-12-04 08:00;98,25
2017-12-04 08:15;100,7
2017-12-04 08:30;106,1
2017-12-04 08:45;129,6
2017-12-04 09:00;142,6
2017-12-04 09:15;144,95
2017-12-04 09:30;149,55
2017-12-04 09:45;146,45
2017-12-04 10:00;142,95
2017-12-04 10:15;145,25
2017-12-04 10:30;147,9
2017-12-04 10:45;159,2
2017-12-04 11:00;167,25
2017-12-04 11:15;168,5
2017-12-04 11:30;169,9
2017-12-04 11:45;167,95
2017-12-04 12:00;165,35
2017-12-04 12:15;171,65
2017-12-04 12:30;175,8
2017-12-04 12:45;172,15
2017-12-04 13:00;177,5
2017-12-04 13:15;174,95
2017-12-04 13:30;180,55
2017-12-04 13:45;185,5
2017-12-04 14:00;185,1
2017-12-04 14:15;185,7
2017-12-04 14:30;184,15
2017-12-04 14:45;184,4
2017-12-04 15:00;173,7
2017-12-04 15:15;173,05
2017-12-04 15:30;168,3
2017-12-04 15:45;168,4
2017-12-04 16:00;160,45
2017-12-04 16:15;160,15
2017-12-04 16:30;159,55
2017-12-04 16:45;156
2017-12-04 17:00;158,95
2017-12-04 17:15;157,15
2017-12-04 17:30;157,05
2017-12-04 17:45;161,45
2017-12-04 18:00;159,65
2017-12-04 18:15;158,8
2017-12-04 18:30;154,65
2017-12-04 18:45;161,25
2017-12-04 19:00;153,3
2017-12-04 19:15;153,75
2017-12-04 19:30;138,65
2017-12-04 19:45;141,5
2017-12-04 20:00;130,3
2017-12-04 20:15;132
2017-12-04 20:30;124,5
2017-12-04 20:45;130,65
2017-12-04 21:00;117,05
2017-12-04 21:15;121,45
2017-12-04 21:30;114,15
2017-12-04 21:45;114,3
2017-12-04 22:00;105,5
2017-12-04 22:15;115,7
2017-12-04 22:30;106,2
2017-12-04 22:45;102,6
2017-12-04 23:00;110,55
2017-12-04 23:15;99,65
2017-12-04 23:30;101,95
2017-12-04 23:45;97,9
2017-12-05 00:00;93,3
2017-12-05 00:15;96,2
2017-12-05 00:30;95,35
2017-12-05 00:45;93,95
2017-12-05 01:00;100,25
2017-12-05 01:15;97,05
2017-12-05 01:30;100,2
2017-12-05 01:45;94
2017-12-05 02:00;92,25
2017-12-05 02:15;90,9
2017-12-05 02:30;90,1
2017-12-05 02:45;92,1
2017-12-05 03:00;89,5
2017-12-05 03:15;89,8
2017-12-05 03:30;89,9
2017-12-05 03:45;89,7
2017-12-05 04:00;89,35
2017-12-05 04:15;91,65
2017-12-05 04:30;86,5
2017-12-05 04:45;90,25
2017-12-05 05:00;86,25
2017-12-05 05:15;90,1
2017-12-05 05:30;89,25
2017-12-05 05:45;92,8
2017-12-05 06:00;92,35
2017-12-05 06:15;96,1
2017-12-05 06:30;95,95
2017-12-05 06:45;96,6
2017-12-05 07:00;95,85
2017-12-05 07:15;97,35
2017-12-05 07:30;97,65
2017-12-05 07:45;103
2017-12-05 08:00;112,4
2017-12-05 08:15;114,55
2017-12-05 08:30;123,1
2017-12-05 08:45;134,55
2017-12-05 09:00;160,9
2017-12-05 09:15;210,25
2017-12-05 09:30;185,45
2017-12-05 09:45;194,65
2017-12-05 10:00;192,1
2017-12-05 10:15;191,35
2017-12-05 10:30;205,7
2017-12-05 10:45;217,3
2017-12-05 11:00;210,35
2017-12-05 11:15;220,3
2017-12-05 11:30;213,35
2017-12-05 11:45;217,4
2017-12-05 12:00;202,5
2017-12-05 12:15;212,4
2017-12-05 12:30;206,7
2017-12-05 12:45;212,9
2017-12-05 13:00;204,5
2017-12-05 13:15;215,6
2017-12-05 13:30;215,45
2017-12-05 13:45;208,95
2017-12-05 14:00;214,5
2017-12-05 14:15;208
2017-12-05 14:30;210,6
2017-12-05 14:45;204,7
2017-12-05 15:00;212,35
2017-12-05 15:15;201,35
2017-12-05 15:30;199,75
2017-12-05 15:45;186,05
2017-12-05 16:00;178,7
2017-12-05 16:15;185,4
2017-12-05 16:30;167,35
2017-12-05 16:45;179,45
2017-12-05 17:00;164,1
2017-12-05 17:15;180,5
2017-12-05 17:30;178,45
2017-12-05 17:45;180,75
2017-12-05 18:00;173,45
2017-12-05 18:15;164,95
2017-12-05 18:30;178,4
2017-12-05 18:45;161,5
2017-12-05 19:00;164,7
2017-12-05 19:15;149,3
2017-12-05 19:30;153,85
2017-12-05 19:45;147,9
2017-12-05 20:00;150,95
2017-12-05 20:15;142,9
2017-12-05 20:30;134,7
2017-12-05 20:45;138,75
2017-12-05 21:00;126,3
2017-12-05 21:15;124,75
2017-12-05 21:30;132,8
2017-12-05 21:45;123,9
2017-12-05 22:00;125,7
2017-12-05 22:15;123,3
2017-12-05 22:30;120,8
2017-12-05 22:45;118,35
2017-12-05 23:00;115,15
2017-12-05 23:15;113,5
2017-12-05 23:30;105,2
2017-12-05 23:45;102,6
2017-12-06 00:00;107,55
2017-12-06 00:15;106,3
2017-12-06 00:30;109
2017-12-06 00:45;104,2
2017-12-06 01:00;105,85
2017-12-06 01:15;105,25
2017-12-06 01:30;102,85
2017-12-06 01:45;106,5
2017-12-06 02:00;102,7
2017-12-06 02:15;106,05
2017-12-06 02:30;102,8
2017-12-06 02:45;108,5
2017-12-06 03:00;104,2
2017-12-06 03:15;109,3
2017-12-06 03:30;102,35
2017-12-06 03:45;103,4
2017-12-06 04:00;107,2
2017-12-06 04:15;103,3
2017-12-06 04:30;107,6
2017-12-06 04:45;101,65
2017-12-06 05:00;107
2017-12-06 05:15;103,95
2017-12-06 05:30;103,2
2017-12-06 05:45;110,2
2017-12-06 06:00;107,35
2017-12-06 06:15;122,35
2017-12-06 06:30;124,15
2017-12-06 06:45;130,45
2017-12-06 07:00;124,55
2017-12-06 07:15;128,7
2017-12-06 07:30;122,8
2017-12-06 07:45;151,15
2017-12-06 08:00;133,95
2017-12-06 08:15;143,75
2017-12-06 08:30;157,9
2017-12-06 08:45;197,1
2017-12-06 09:00;201,5
2017-12-06 09:15;213
2017-12-06 09:30;211,25
2017-12-06 09:45;213,1
2017-12-06 10:00;210
2017-12-06 10:15;216,55
2017-12-06 10:30;220,25
2017-12-06 10:45;225,75
2017-12-06 11:00;237,1
2017-12-06 11:15;238,6
2017-12-06 11:30;246,95
2017-12-06 11:45;251,25
2017-12-06 12:00;248,8
2017-12-06 12:15;243,05
2017-12-06 12:30;240,95
2017-12-06 12:45;238,55
2017-12-06 13:00;228
2017-12-06 13:15;238,9
2017-12-06 13:30;225,75
2017-12-06 13:45;237,05
2017-12-06 14:00;231,5
2017-12-06 14:15;236,55
2017-12-06 14:30;227,25
2017-12-06 14:45;232,65
2017-12-06 15:00;218,2
2017-12-06 15:15;214
2017-12-06 15:30;209,9
2017-12-06 15:45;206,8
2017-12-06 16:00;200,65
2017-12-06 16:15;192,05
2017-12-06 16:30;184,55
2017-12-06 16:45;180,85
2017-12-06 17:00;184,9
2017-12-06 17:15;183,7
2017-12-06 17:30;185,95
2017-12-06 17:45;184,65
2017-12-06 18:00;186,05
2017-12-06 18:15;180,55
2017-12-06 18:30;176,2
2017-12-06 18:45;164,95
2017-12-06 19:00;164,15
2017-12-06 19:15;162,45
2017-12-06 19:30;164,1
2017-12-06 19:45;154,75
2017-12-06 20:00;138,9
2017-12-06 20:15;130,25
2017-12-06 20:30;127,9
2017-12-06 20:45;124,55
2017-12-06 21:00;121,75
2017-12-06 21:15;120,3
2017-12-06 21:30;117,15
2017-12-06 21:45;119,35
2017-12-06 22:00;116,7
2017-12-06 22:15;121,35
2017-12-06 22:30;116,9
2017-12-06 22:45;115
2017-12-06 23:00;115,7
2017-12-06 23:15;107,85
2017-12-06 23:30;107,25
2017-12-06 23:45;103,3
2017-12-07 00:00;103
2017-12-07 00:15;101,1
2017-12-07 00:30;100,85
2017-12-07 00:45;103,25
2017-12-07 01:00;98,9
2017-12-07 01:15;102,3
2017-12-07 01:30;101
2017-12-07 01:45;101,35
2017-12-07 02:00;100,65
2017-12-07 02:15;101,25
2017-12-07 02:30;102,35
2017-12-07 02:45;99,75
2017-12-07 03:00;100,75
2017-12-07 03:15;98,3
2017-12-07 03:30;98,45
2017-12-07 03:45;96,95
2017-12-07 04:00;95,75
2017-12-07 04:15;96,65
2017-12-07 04:30;94,65
2017-12-07 04:45;95,65
2017-12-07 05:00;96,15
2017-12-07 05:15;96,75
2017-12-07 05:30;96,4
2017-12-07 05:45;97,6
2017-12-07 06:00;100,6
2017-12-07 06:15;100,05
2017-12-07 06:30;104,15
2017-12-07 06:45;103,3
2017-12-07 07:00;112,5
2017-12-07 07:15;111,2
2017-12-07 07:30;115,65
2017-12-07 07:45;120,6
2017-12-07 08:00;124,05
2017-12-07 08:15;125,85
2017-12-07 08:30;132,25
2017-12-07 08:45;154,05
2017-12-07 09:00;167,75
2017-12-07 09:15;256,7
2017-12-07 09:30;235,5
2017-12-07 09:45;227,5
2017-12-07 10:00;217,2
2017-12-07 10:15;204,9
2017-12-07 10:30;205,35
2017-12-07 10:45;201,2
2017-12-07 11:00;213,65
2017-12-07 11:15;209,8
2017-12-07 11:30;222,2
2017-12-07 11:45;208
2017-12-07 12:00;218,25
2017-12-07 12:15;206,95
2017-12-07 12:30;219,3
2017-12-07 12:45;207,6
2017-12-07 13:00;220,2
2017-12-07 13:15;212,5
2017-12-07 13:30;224,6
2017-12-07 13:45;207,4
2017-12-07 14:00;218,4
2017-12-07 14:15;211,9
2017-12-07 14:30;208,4
2017-12-07 14:45;205,2
2017-12-07 15:00;189
2017-12-07 15:15;188,9
2017-12-07 15:30;178,4
2017-12-07 15:45;174,5
2017-12-07 16:00;172,5
2017-12-07 16:15;168,6
2017-12-07 16:30;165,55
2017-12-07 16:45;159,65
2017-12-07 17:00;161,05
2017-12-07 17:15;166,75
2017-12-07 17:30;169,15
2017-12-07 17:45;184,95
2017-12-07 18:00;180,4
2017-12-07 18:15;180,2
2017-12-07 18:30;176,1
2017-12-07 18:45;169,25
2017-12-07 19:00;171,45
2017-12-07 19:15;168
2017-12-07 19:30;161,2
2017-12-07 19:45;157,6
2017-12-07 20:00;147,7
2017-12-07 20:15;145,95
2017-12-07 20:30;140,35
2017-12-07 20:45;141,55
2017-12-07 21:00;132,15
2017-12-07 21:15;131,3
2017-12-07 21:30;127,15
2017-12-07 21:45;125,4
2017-12-07 22:00;123,65
2017-12-07 22:15;124,35
2017-12-07 22:30;123,95
2017-12-07 22:45;115,2
2017-12-07 23:00;118,3
2017-12-07 23:15;107,9
2017-12-07 23:30;106,3
2017-12-07 23:45;105,85
2017-12-08 00:00;98,85
2017-12-08 00:15;101,4
2017-12-08 00:30;102
2017-12-08 00:45;102
2017-12-08 01:00;99,7
2017-12-08 01:15;99,85
2017-12-08 01:30;102,25
2017-12-08 01:45;100,8
2017-12-08 02:00;100,7
2017-12-08 02:15;100,05
2017-12-08 02:30;100,95
2017-12-08 02:45;99,65
2017-12-08 03:00;98,8
2017-12-08 03:15;100,5
2017-12-08 03:30;97,15
2017-12-08 03:45;96,05
2017-12-08 04:00;95,55
2017-12-08 04:15;97,85
2017-12-08 04:30;94,7
2017-12-08 04:45;95,4
2017-12-08 05:00;94,45
2017-12-08 05:15;96,3
2017-12-08 05:30;98,25
2017-12-08 05:45;99,55
2017-12-08 06:00;102,4
2017-12-08 06:15;99,9
2017-12-08 06:30;105
2017-12-08 06:45;102,2
2017-12-08 07:00;102,15
2017-12-08 07:15;103,4
2017-12-08 07:30;148,85
2017-12-08 07:45;142,45
2017-12-08 08:00;119,05
2017-12-08 08:15;130,75
2017-12-08 08:30;131,35
2017-12-08 08:45;148
2017-12-08 09:00;152,3
2017-12-08 09:15;155,5
2017-12-08 09:30;159,35
2017-12-08 09:45;165,85
2017-12-08 10:00;169,75
2017-12-08 10:15;175,05
2017-12-08 10:30;174,95
2017-12-08 10:45;179,9
2017-12-08 11:00;182,7
2017-12-08 11:15;178,45
2017-12-08 11:30;182
2017-12-08 11:45;178,2
2017-12-08 12:00;182,75
2017-12-08 12:15;189,9
2017-12-08 12:30;187,8
2017-12-08 12:45;192,15
2017-12-08 13:00;189,5
2017-12-08 13:15;195,3
2017-12-08 13:30;197,5
2017-12-08 13:45;193,2
2017-12-08 14:00;187,7
2017-12-08 14:15;185,7
2017-12-08 14:30;185,2
2017-12-08 14:45;181
2017-12-08 15:00;178,5
2017-12-08 15:15;172,1
2017-12-08 15:30;166,8
2017-12-08 15:45;166,8
2017-12-08 16:00;156,55
2017-12-08 16:15;156,45
2017-12-08 16:30;152,25
2017-12-08 16:45;161,05
2017-12-08 17:00;158,75
2017-12-08 17:15;163,05
2017-12-08 17:30;162,7
2017-12-08 17:45;165,1
2017-12-08 18:00;161,35
2017-12-08 18:15;165,1
2017-12-08 18:30;160,45
2017-12-08 18:45;162,25
2017-12-08 19:00;155,75
2017-12-08 19:15;152,7
2017-12-08 19:30;142,15
2017-12-08 19:45;139,7
2017-12-08 20:00;133,75
2017-12-08 20:15;130
2017-12-08 20:30;128,7
2017-12-08 20:45;127,7
2017-12-08 21:00;123,05
2017-12-08 21:15;120,95
2017-12-08 21:30;118,5
2017-12-08 21:45;117,1
2017-12-08 22:00;115,9
2017-12-08 22:15;112
2017-12-08 22:30;111,6
2017-12-08 22:45;109,05
2017-12-08 23:00;110,05
2017-12-08 23:15;112,5
2017-12-08 23:30;110,7
2017-12-08 23:45;112,8
2017-12-09 00:00;106,25
2017-12-09 00:15;106,9
2017-12-09 00:30;103,45
2017-12-09 00:45;101,4
2017-12-09 01:00;100,15
2017-12-09 01:15;100,75
2017-12-09 01:30;101,4
2017-12-09 01:45;99,4
2017-12-09 02:00;98,3
2017-12-09 02:15;100,3
2017-12-09 02:30;98,8
2017-12-09 02:45;98,35
2017-12-09 03:00;98,35
2017-12-09 03:15;97,15
2017-12-09 03:30;96,85
2017-12-09 03:45;98,4
2017-12-09 04:00;95,75
2017-12-09 04:15;97,85
2017-12-09 04:30;97,55
2017-12-09 04:45;96,15
2017-12-09 05:00;94,6
2017-12-09 05:15;96,3
2017-12-09 05:30;97,05
2017-12-09 05:45;97,35
2017-12-09 06:00;100,1
2017-12-09 06:15;101,55
2017-12-09 06:30;100,85
2017-12-09 06:45;99,2
2017-12-09 07:00;98,6
2017-12-09 07:15;95,2
2017-12-09 07:30;99,2
2017-12-09 07:45;95,15
2017-12-09 08:00;95,35
2017-12-09 08:15;96,5
2017-12-09 08:30;95,7
2017-12-09 08:45;96,3
2017-12-09 09:00;90,25
2017-12-09 09:15;89,75
2017-12-09 09:30;90,1
2017-12-09 09:45;93
2017-12-09 10:00;89,8
2017-12-09 10:15;89,05
2017-12-09 10:30;93,3
2017-12-09 10:45;97,55
2017-12-09 11:00;97,5
2017-12-09 11:15;98,05
2017-12-09 11:30;99,35
2017-12-09 11:45;99,35
2017-12-09 12:00;99,6
2017-12-09 12:15;97,35
2017-12-09 12:30;100,4
2017-12-09 12:45;99,5
2017-12-09 13:00;99,9
2017-12-09 13:15;104,3
2017-12-09 13:30;102,1
2017-12-09 13:45;103,1
2017-12-09 14:00;104
2017-12-09 14:15;102,75
2017-12-09 14:30;103,8
2017-12-09 14:45;102,95
2017-12-09 15:00;102,05
2017-12-09 15:15;101,65
2017-12-09 15:30;98,95
2017-12-09 15:45;99,75
2017-12-09 16:00;99
2017-12-09 16:15;100,15
2017-12-09 16:30;101,85
2017-12-09 16:45;101,5
2017-12-09 17:00;9,7
2017-12-09 17:15;104,25
2017-12-09 17:30;109,85
2017-12-09 17:45;113,45
2017-12-09 18:00;115,7
2017-12-09 18:15;110,1
2017-12-09 18:30;108,65
2017-12-09 18:45;109,35
2017-12-09 19:00;114,15
2017-12-09 19:15;109,6
2017-12-09 19:30;114
2017-12-09 19:45;112,6
2017-12-09 20:00;111,4
2017-12-09 20:15;112,3
2017-12-09 20:30;114,55
2017-12-09 20:45;109,2
2017-12-09 21:00;107,85
2017-12-09 21:15;105,1
2017-12-09 21:30;108,35
2017-12-09 21:45;102,35
2017-12-09 22:00;97,35
2017-12-09 22:15;107,1
2017-12-09 22:30;103,95
2017-12-09 22:45;102,25
2017-12-09 23:00;103,45
2017-12-09 23:15;95,75
2017-12-09 23:30;92,4
2017-12-09 23:45;94,65
2017-12-10 00:00;91,35
2017-12-10 00:15;93,35
2017-12-10 00:30;91,6
2017-12-10 00:45;93,3
2017-12-10 01:00;91,35
2017-12-10 01:15;93,65
2017-12-10 01:30;91,1
2017-12-10 01:45;94,35
2017-12-10 02:00;91,65
2017-12-10 02:15;95,55
2017-12-10 02:30;91,2
2017-12-10 02:45;92,55
2017-12-10 03:00;91,05
2017-12-10 03:15;94,05
2017-12-10 03:30;93,15
2017-12-10 03:45;91,95
2017-12-10 04:00;94,6
2017-12-10 04:15;91,6
2017-12-10 04:30;93,95
2017-12-10 04:45;92,45
2017-12-10 05:00;94,3
2017-12-10 05:15;92,05
2017-12-10 05:30;94,05
2017-12-10 05:45;92,35
2017-12-10 06:00;95,95
2017-12-10 06:15;93,65
2017-12-10 06:30;98,35
2017-12-10 06:45;95,9
2017-12-10 07:00;93,1
2017-12-10 07:15;95,35
2017-12-10 07:30;92,6
2017-12-10 07:45;89,9
2017-12-10 08:00;86,1
2017-12-10 08:15;89,25
2017-12-10 08:30;88,65
2017-12-10 08:45;89,35
2017-12-10 09:00;83
2017-12-10 09:15;84,8
2017-12-10 09:30;82,9
2017-12-10 09:45;89,25
2017-12-10 10:00;85,65
2017-12-10 10:15;88,55
2017-12-10 10:30;89,05
2017-12-10 10:45;92,1
2017-12-10 11:00;91,05
2017-12-10 11:15;96,6
2017-12-10 11:30;100,75
2017-12-10 11:45;97,85
2017-12-10 12:00;98,35
2017-12-10 12:15;98,65
2017-12-10 12:30;100,5
2017-12-10 12:45;99,25
2017-12-10 13:00;102,25
2017-12-10 13:15;97,6
2017-12-10 13:30;100,75
2017-12-10 13:45;97,15
2017-12-10 14:00;101,55
2017-12-10 14:15;103,05
2017-12-10 14:30;105,65
2017-12-10 14:45;99,5
2017-12-10 15:00;106,9
2017-12-10 15:15;101,05
2017-12-10 15:30;99,55
2017-12-10 15:45;101,9
2017-12-10 16:00;103,5
2017-12-10 16:15;104,35
2017-12-10 16:30;101
2017-12-10 16:45;101
2017-12-10 17:00;105,55
2017-12-10 17:15;101,95
2017-12-10 17:30;107,65
2017-12-10 17:45;115,15
2017-12-10 18:00;108,15
2017-12-10 18:15;112
2017-12-10 18:30;107,8
2017-12-10 18:45;108,85
2017-12-10 19:00;105,3
2017-12-10 19:15;108,65
2017-12-10 19:30;108,15
2017-12-10 19:45;111,4
2017-12-10 20:00;106,6
2017-12-10 20:15;110,8
2017-12-10 20:30;108
2017-12-10 20:45;109,85
2017-12-10 21:00;107,5
2017-12-10 21:15;110,95
2017-12-10 21:30;105,9
2017-12-10 21:45;102,65
2017-12-10 22:00;104
2017-12-10 22:15;112,4
2017-12-10 22:30;104,95
2017-12-10 22:45;102,2
2017-12-10 23:00;106,4
2017-12-10 23:15;96,85
2017-12-10 23:30;94,9
2017-12-10 23:45;94,4

